This is the latest recevied weather packets stored in our database for station/object W9WRP. If no packets are shown the sender has not sent any weather packets the latest 10 day(s).
| Time | Temp. | Humidity | Pressure | Rain* | Wind** | Luminosity | Snow |
|---|---|---|---|---|---|---|---|
| 1787423381 | 41.67° C | 19% | 1017 hPa | 0 mm | - | 710 W/m² | - |
| 1787423078 | 41.11° C | 19% | 1017 hPa | 0 mm | - | 706 W/m² | - |
| 1787422773 | 41.67° C | 19% | 1017.1 hPa | 0 mm | - | 699 W/m² | - |
| 1787422470 | 41.67° C | 18% | 1017.4 hPa | 0 mm | - | 694 W/m² | - |
| 1787422164 | 41.11° C | 18% | 1017.6 hPa | 0 mm | - | 688 W/m² | - |
| 1787421861 | 41.67° C | 18% | 1017.4 hPa | 0 mm | - | 682 W/m² | - |
| 1787421560 | 41.11° C | 18% | 1017.4 hPa | 0 mm | - | 675 W/m² | - |
| 1787421257 | 41.11° C | 19% | 1017.7 hPa | 0 mm | - | 668 W/m² | - |
| 1787420951 | 41.11° C | 19% | 1017.6 hPa | 0 mm | - | 661 W/m² | - |
| 1787420647 | 40.56° C | 19% | 1017.6 hPa | 0 mm | - | 650 W/m² | - |
| 1787420343 | 41.11° C | 19% | 1017.8 hPa | 0 mm | - | 640 W/m² | - |
| 1787420039 | 40.56° C | 19% | 1017.7 hPa | 0 mm | - | 632 W/m² | - |
| 1787419735 | 40.56° C | 20% | 1017.6 hPa | 0 mm | - | 623 W/m² | - |
| 1787419431 | 40° C | 20% | 1017.7 hPa | 0 mm | - | 612 W/m² | - |
| 1787419126 | 39.44° C | 20% | 1017.5 hPa | 0 mm | - | 602 W/m² | - |
| 1787418821 | 40° C | 20% | 1017.8 hPa | 0 mm | - | 563 W/m² | - |
| 1787418518 | 40° C | 21% | 1017.8 hPa | 0 mm | - | 579 W/m² | - |
| 1787418214 | 40° C | 21% | 1017.8 hPa | 0 mm | - | 434 W/m² | - |
| 1787417908 | 39.44° C | 22% | 1017.9 hPa | 0 mm | - | 126 W/m² | - |
| 1787417604 | 38.89° C | 22% | 1017.9 hPa | 0 mm | - | 126 W/m² | - |
| 1787417299 | 38.89° C | 22% | 1017.9 hPa | 0 mm | - | 213 W/m² | - |
| 1787416995 | 38.89° C | 22% | 1017.7 hPa | 0 mm | - | 129 W/m² | - |
| 1787416690 | 38.33° C | 22% | 1017.8 hPa | 0 mm | - | 93 W/m² | - |
| 1787416386 | 38.33° C | 22% | 1017.9 hPa | 0 mm | - | 67 W/m² | - |
| 1787416085 | 38.33° C | 23% | 1017.7 hPa | 0 mm | - | 71 W/m² | - |
* Rain latest hour (hover to see other rain measurements)
** Current wind speed in m/s (hover to see current wind gust speed)